START_TIME,STEP,MOV.,H8,t_acc.,H43,t_acc.,M25,t_acc.,H9,t_acc.
1979-07-17 12:00:29.500 ,0,0,0.,12.0,0.,12.0,0.,12.0,0.,12.0
1979-07-17 12:00:41.500 ,0,0,0.,12.0,0.,12.0,0.,12.0,0.,12.0
1979-07-17 12:00:53.500 ,1,0,0.,12.0,0.,12.0,0.,12.0,0.,12.0
1979-07-17 12:01:05.500 ,1,0,0.,12.0,0.,12.0,0.,12.0,0.,12.0
1979-07-17 12:01:17.500 ,1,0,0.,12.0,0.,12.0,0.,12.0,0.,12.0
1979-07-17 12:01:29.500 ,1,0,0.,12.0,0.,12.0,0.,12.0,0.,12.0
1979-07-17 12:01:41.500 ,2,0,0.,12.0,0.,12.0,0.,12.0,0.,12.0
1979-07-17 12:01:53.500 ,2,0,0.,12.0,0.,12.0,0.,12.0,0.,12.0
1979-07-17 12:02:05.500 ,2,0,1.,12.0,0.,12.0,0.,12.0,0.,12.0
1979-07-17 12:02:17.500 ,2,0,0.,12.0,0.,12.0,0.,12.0,0.,12.0
1979-07-17 12:02:29.500 ,3,0,0.,12.0,0.,12.0,0.,12.0,0.,12.0
1979-07-17 12:02:41.500 ,3,0,0.,12.0,0.,12.0,0.,12.0,0.,12.0
1979-07-17 12:02:53.500 ,3,0,0.,12.0,0.,12.0,0.,12.0,0.,12.0
1979-07-17 12:03:05.500 ,3,0,0.,12.0,0.,12.0,0.,12.0,0.,12.0
1979-07-17 12:03:17.500 ,4,0,0.,12.0,0.,12.0,0.,12.0,0.,12.0
1979-07-17 12:03:29.500 ,4,0,0.,12.0,0.,12.0,0.,12.0,0.,12.0
1979-07-17 12:03:41.500 ,4,0,0.,12.0,0.,12.0,0.,12.0,0.,12.0
1979-07-17 12:03:53.500 ,4,0,0.,12.0,0.,12.0,0.,12.0,0.,12.0
1979-07-17 12:04:05.500 ,5,0,0.,12.0,0.,12.0,0.,12.0,0.,12.0
1979-07-17 12:04:17.500 ,5,0,0.,12.0,0.,12.0,0.,12.0,0.,12.0
1979-07-17 12:04:29.500 ,5,0,0.,12.0,0.,12.0,0.,12.0,0.,12.0
1979-07-17 12:04:41.500 ,5,0,0.,12.0,0.,12.0,0.,12.0,0.,12.0
1979-07-17 12:04:53.500 ,6,0,0.,12.0,0.,12.0,0.,12.0,0.,12.0
1979-07-17 12:05:05.500 ,6,0,0.,12.0,0.,12.0,0.,12.0,0.,12.0
1979-07-17 12:05:17.500 ,6,0,0.,12.0,0.,12.0,0.,12.0,0.,12.0
1979-07-17 12:05:29.500 ,6,0,0.,12.0,0.,12.0,0.,12.0,0.,12.0
1979-07-17 12:05:41.500 ,7,0,0.,12.0,0.,12.0,0.,12.0,0.,12.0
1979-07-17 12:05:53.500 ,7,0,0.,12.0,0.,12.0,0.,12.0,0.,12.0
1979-07-17 12:06:05.500 ,7,0,0.,12.0,0.,12.0,0.,12.0,0.,12.0
1979-07-17 12:06:17.500 ,7,0,0.,12.0,0.,12.0,0.,12.0,0.,12.0
1979-07-17 12:06:29.500 ,7,0,0.,12.0,0.,12.0,0.,12.0,0.,12.0
1979-07-17 12:06:41.500 ,7,0,0.,12.0,0.,12.0,0.,12.0,0.,12.0
1979-07-17 12:06:53.500 ,7,0,0.,12.0,0.,12.0,0.,12.0,0.,12.0
1979-07-17 12:07:05.500 ,7,0,0.,12.0,0.,12.0,0.,12.0,0.,12.0
1979-07-17 12:07:17.500 ,6,0,0.,12.0,0.,12.0,0.,12.0,0.,12.0
1979-07-17 12:07:29.500 ,6,0,0.,12.0,0.,12.0,0.,12.0,0.,12.0
1979-07-17 12:07:41.500 ,6,0,0.,12.0,0.,12.0,0.,12.0,0.,12.0
1979-07-17 12:07:53.500 ,6,0,0.,12.0,0.,12.0,0.,12.0,0.,12.0
1979-07-17 12:08:05.500 ,5,0,0.,12.0,0.,12.0,0.,12.0,0.,12.0
1979-07-17 12:08:17.500 ,5,0,0.,12.0,0.,12.0,0.,12.0,0.,12.0
1979-07-17 12:08:29.500 ,5,0,0.,12.0,0.,12.0,0.,12.0,0.,12.0
1979-07-17 12:08:41.500 ,5,0,0.,12.0,0.,12.0,0.,12.0,0.,12.0
1979-07-17 12:08:53.500 ,4,0,0.,12.0,0.,12.0,0.,12.0,0.,12.0
1979-07-17 12:09:05.500 ,4,0,0.,12.0,0.,12.0,0.,12.0,0.,12.0
1979-07-17 12:09:17.500 ,4,0,0.,12.0,0.,12.0,0.,12.0,0.,12.0
1979-07-17 12:09:29.500 ,4,0,0.,12.0,0.,12.0,0.,12.0,0.,12.0
1979-07-17 12:09:41.500 ,3,0,0.,12.0,0.,12.0,0.,12.0,0.,12.0
1979-07-17 12:09:53.500 ,3,0,0.,12.0,0.,12.0,0.,12.0,0.,12.0
1979-07-17 12:10:05.500 ,3,0,1.,12.0,0.,12.0,0.,12.0,0.,12.0
1979-07-17 12:10:17.500 ,3,0,0.,12.0,0.,12.0,0.,12.0,0.,12.0
1979-07-17 12:10:29.500 ,2,0,0.,12.0,0.,12.0,0.,12.0,0.,12.0
1979-07-17 12:10:41.500 ,2,0,0.,12.0,0.,12.0,0.,12.0,0.,12.0
1979-07-17 12:10:53.500 ,2,0,0.,12.0,0.,12.0,0.,12.0,0.,12.0
1979-07-17 12:11:05.500 ,2,0,0.,12.0,0.,12.0,0.,12.0,0.,12.0
1979-07-17 12:11:17.500 ,1,0,0.,12.0,0.,12.0,0.,12.0,0.,12.0
1979-07-17 12:11:29.500 ,1,0,0.,12.0,0.,12.0,0.,12.0,0.,12.0
1979-07-17 12:11:41.500 ,0,0,0.,12.0,0.,12.0,0.,12.0,0.,12.0
1979-07-17 12:11:53.500 ,0,0,1.,12.0,0.,12.0,0.,12.0,0.,12.0
1979-07-17 12:11:41.500 ,1,0,0.,12.0,0.,12.0,0.,12.0,0.,12.0
1979-07-17 12:11:53.500 ,1,0,1.,12.0,0.,12.0,0.,12.0,0.,12.0
1979-07-17 12:12:05.500 ,0,0,0.,12.0,0.,12.0,0.,12.0,0.,12.0
1979-07-17 12:12:17.500 ,0,0,0.,12.0,0.,12.0,0.,12.0,0.,12.0
1979-07-17 12:12:29.500 ,0,0,0.,12.0,0.,12.0,0.,12.0,0.,12.0
1979-07-17 12:12:41.500 ,0,0,0.,12.0,0.,12.0,0.,12.0,0.,12.0
1979-07-17 12:12:53.500 ,0,0,0.,12.0,0.,12.0,0.,12.0,0.,12.0
1979-07-17 12:13:05.500 ,0,0,0.,12.0,0.,12.0,0.,12.0,0.,12.0
1979-07-17 12:13:17.500 ,0,0,0.,12.0,0.,12.0,0.,12.0,0.,12.0
1979-07-17 12:13:29.500 ,0,0,1.,12.0,0.,12.0,0.,12.0,0.,12.0
1979-07-17 12:13:41.500 ,1,0,0.,12.0,0.,12.0,0.,12.0,0.,12.0
1979-07-17 12:13:53.500 ,1,0,0.,12.0,0.,12.0,0.,12.0,0.,12.0
1979-07-17 12:14:05.500 ,1,0,1.,12.0,0.,12.0,0.,12.0,0.,12.0
1979-07-17 12:14:17.500 ,1,0,0.,12.0,0.,12.0,0.,12.0,0.,12.0
1979-07-17 12:14:29.500 ,2,0,0.,12.0,0.,12.0,0.,12.0,0.,12.0
1979-07-17 12:14:41.500 ,2,0,0.,12.0,0.,12.0,0.,12.0,0.,12.0
1979-07-17 12:14:53.500 ,2,0,0.,12.0,0.,12.0,0.,12.0,0.,12.0
1979-07-17 12:15:05.500 ,2,0,1.,12.0,0.,12.0,0.,12.0,0.,12.0
1979-07-17 12:15:17.500 ,3,0,0.,12.0,0.,12.0,0.,12.0,0.,12.0
1979-07-17 12:15:29.500 ,3,0,0.,12.0,0.,12.0,0.,12.0,0.,12.0
1979-07-17 12:15:41.500 ,3,0,0.,12.0,0.,12.0,0.,12.0,0.,12.0
1979-07-17 12:15:53.500 ,3,0,0.,12.0,0.,12.0,0.,12.0,0.,12.0
1979-07-17 12:16:05.500 ,4,0,0.,12.0,0.,12.0,0.,12.0,0.,12.0
1979-07-17 12:16:17.500 ,4,0,0.,12.0,0.,12.0,0.,12.0,0.,12.0
1979-07-17 12:16:29.500 ,4,0,1.,12.0,0.,12.0,0.,12.0,0.,12.0
1979-07-17 12:16:41.500 ,4,0,0.,12.0,0.,12.0,0.,12.0,0.,12.0
1979-07-17 12:16:53.500 ,5,0,0.,12.0,0.,12.0,0.,12.0,0.,12.0
1979-07-17 12:17:05.500 ,5,0,0.,12.0,0.,12.0,0.,12.0,0.,12.0
1979-07-17 12:17:17.500 ,5,0,0.,12.0,0.,12.0,0.,12.0,0.,12.0
1979-07-17 12:17:29.500 ,5,0,0.,12.0,0.,12.0,0.,12.0,0.,12.0
1979-07-17 12:17:41.500 ,6,0,0.,12.0,0.,12.0,0.,12.0,0.,12.0
1979-07-17 12:17:53.500 ,6,0,0.,12.0,0.,12.0,0.,12.0,0.,12.0
1979-07-17 12:18:05.500 ,6,0,0.,12.0,0.,12.0,0.,12.0,0.,12.0
1979-07-17 12:18:17.500 ,6,0,0.,12.0,0.,12.0,0.,12.0,0.,12.0
1979-07-17 12:18:29.500 ,7,0,0.,12.0,0.,12.0,0.,12.0,0.,12.0
1979-07-17 12:18:41.500 ,7,0,0.,12.0,0.,12.0,0.,12.0,0.,12.0
1979-07-17 12:18:53.500 ,7,0,0.,12.0,0.,12.0,0.,12.0,0.,12.0
1979-07-17 12:19:05.500 ,7,0,0.,12.0,0.,12.0,0.,12.0,0.,12.0
1979-07-17 12:19:17.500 ,3,1,0.,12.0,0.,12.0,0.,12.0,0.,12.0
1979-07-17 12:19:29.500 ,3,1,0.,12.0,0.,12.0,0.,12.0,0.,12.0
1979-07-17 12:19:41.500 ,0,1,0.,12.0,0.,12.0,0.,12.0,0.,12.0
1979-07-17 12:19:53.500 ,0,1,0.,12.0,0.,12.0,0.,12.0,0.,12.0
1979-07-17 12:20:05.500 ,4,1,0.,12.0,0.,12.0,0.,12.0,0.,12.0
1979-07-17 12:20:17.500 ,4,1,0.,12.0,0.,12.0,0.,12.0,0.,12.0
1979-07-17 12:20:29.500 ,7,1,1.,12.0,0.,12.0,0.,12.0,0.,12.0
1979-07-17 12:20:41.500 ,7,1,0.,12.0,0.,12.0,0.,12.0,0.,12.0
1979-07-17 12:20:53.500 ,3,1,0.,12.0,0.,12.0,0.,12.0,0.,12.0
1979-07-17 12:21:05.500 ,3,1,0.,12.0,0.,12.0,0.,12.0,0.,12.0
1979-07-17 12:21:17.500 ,0,1,0.,12.0,0.,12.0,0.,12.0,0.,12.0
1979-07-17 12:21:29.500 ,0,1,0.,12.0,0.,12.0,0.,12.0,0.,12.0
1979-07-17 12:21:41.500 ,0,0,0.,12.0,0.,12.0,0.,12.0,0.,12.0
1979-07-17 12:21:53.500 ,0,0,0.,12.0,0.,12.0,0.,12.0,0.,12.0
1979-07-17 12:22:05.500 ,7,1,0.,12.0,0.,12.0,0.,12.0,0.,12.0
1979-07-17 12:22:17.500 ,7,1,0.,12.0,0.,12.0,0.,12.0,0.,12.0
1979-07-17 12:22:29.500 ,3,1,0.,12.0,0.,12.0,0.,12.0,0.,12.0
1979-07-17 12:22:41.500 ,3,1,0.,12.0,0.,12.0,0.,12.0,0.,12.0
1979-07-17 12:22:53.500 ,0,1,0.,12.0,0.,12.0,0.,12.0,0.,12.0
1979-07-17 12:23:05.500 ,0,1,0.,12.0,0.,12.0,0.,12.0,0.,12.0
1979-07-17 12:23:17.500 ,4,1,0.,12.0,0.,12.0,0.,12.0,0.,12.0
1979-07-17 12:23:29.500 ,4,1,0.,12.0,0.,12.0,0.,12.0,0.,12.0
1979-07-17 12:23:41.500 ,7,1,0.,12.0,0.,12.0,0.,12.0,0.,12.0
1979-07-17 12:23:53.500 ,7,1,0.,12.0,0.,12.0,0.,12.0,0.,12.0
1979-07-17 12:24:05.500 ,3,1,0.,12.0,0.,12.0,0.,12.0,0.,12.0
1979-07-17 12:24:17.500 ,3,1,0.,12.0,0.,12.0,0.,12.0,0.,12.0
1979-07-17 12:24:29.500 ,0,1,0.,12.0,0.,12.0,0.,12.0,0.,12.0
1979-07-17 12:24:41.500 ,0,1,0.,12.0,0.,12.0,0.,12.0,0.,12.0
1979-07-17 12:24:53.500 ,4,1,0.,12.0,0.,12.0,0.,12.0,0.,12.0
1979-07-17 12:25:05.500 ,4,1,0.,12.0,0.,12.0,0.,12.0,0.,12.0
1979-07-17 12:25:17.500 ,7,1,0.,12.0,0.,12.0,0.,12.0,0.,12.0
1979-07-17 12:25:29.500 ,7,1,0.,12.0,0.,12.0,0.,12.0,0.,12.0
1979-07-17 12:25:41.500 ,3,1,0.,12.0,0.,12.0,0.,12.0,0.,12.0
1979-07-17 12:25:53.500 ,3,1,0.,12.0,0.,12.0,0.,12.0,0.,12.0
1979-07-17 12:26:05.500 ,0,1,0.,12.0,0.,12.0,0.,12.0,0.,12.0
1979-07-17 12:26:17.500 ,0,1,0.,12.0,0.,12.0,0.,12.0,0.,12.0
1979-07-17 12:26:29.500 ,4,1,0.,12.0,0.,12.0,0.,12.0,0.,12.0
1979-07-17 12:26:41.500 ,4,1,0.,12.0,0.,12.0,0.,12.0,0.,12.0
1979-07-17 12:26:53.500 ,7,1,0.,12.0,0.,12.0,0.,12.0,0.,12.0
1979-07-17 12:27:05.500 ,7,1,0.,12.0,0.,12.0,0.,12.0,0.,12.0
1979-07-17 12:27:17.500 ,3,1,0.,12.0,0.,12.0,0.,12.0,0.,12.0
1979-07-17 12:27:29.500 ,3,1,0.,12.0,0.,12.0,0.,12.0,0.,12.0
1979-07-17 12:27:41.500 ,0,1,0.,12.0,0.,12.0,0.,12.0,0.,12.0
1979-07-17 12:27:53.500 ,0,1,0.,12.0,0.,12.0,0.,12.0,0.,12.0
1979-07-17 12:28:05.500 ,4,1,0.,12.0,0.,12.0,0.,12.0,0.,12.0
1979-07-17 12:28:17.500 ,4,1,0.,12.0,0.,12.0,0.,12.0,0.,12.0
1979-07-17 12:28:29.500 ,7,1,0.,12.0,0.,12.0,0.,12.0,0.,12.0
1979-07-17 12:28:41.500 ,7,1,0.,12.0,0.,12.0,0.,12.0,0.,12.0
1979-07-17 12:28:53.490 ,3,1,0.,12.0,0.,12.0,0.,12.0,0.,12.0
1979-07-17 12:29:05.490 ,3,1,0.,12.0,0.,12.0,0.,12.0,0.,12.0
1979-07-17 12:29:17.490 ,0,1,0.,12.0,0.,12.0,0.,12.0,0.,12.0
1979-07-17 12:29:29.490 ,0,1,0.,12.0,0.,12.0,0.,12.0,0.,12.0
1979-07-17 12:29:41.490 ,0,0,0.,12.0,0.,12.0,0.,12.0,0.,12.0
1979-07-17 12:29:53.490 ,0,0,0.,12.0,0.,12.0,0.,12.0,0.,12.0
1979-07-17 12:30:05.490 ,0,0,0.,12.0,0.,12.0,0.,12.0,0.,12.0
1979-07-17 12:30:17.490 ,0,0,0.,12.0,0.,12.0,0.,12.0,0.,12.0
1979-07-17 12:30:29.490 ,5,0,0.,12.0,0.,12.0,0.,12.0,0.,12.0
1979-07-17 12:30:41.490 ,5,0,0.,12.0,0.,12.0,0.,12.0,0.,12.0
1979-07-17 12:30:53.490 ,5,0,0.,12.0,0.,12.0,0.,12.0,0.,12.0
1979-07-17 12:31:05.490 ,5,0,0.,12.0,0.,12.0,0.,12.0,0.,12.0
1979-07-17 12:31:17.490 ,4,0,0.,12.0,0.,12.0,0.,12.0,0.,12.0
1979-07-17 12:31:29.490 ,4,0,0.,12.0,0.,12.0,0.,12.0,0.,12.0
1979-07-17 12:31:41.490 ,4,0,0.,12.0,0.,12.0,0.,12.0,0.,12.0
1979-07-17 12:31:53.490 ,4,0,0.,12.0,0.,12.0,0.,12.0,0.,12.0
1979-07-17 12:32:05.490 ,3,0,0.,12.0,0.,12.0,0.,12.0,0.,12.0
1979-07-17 12:32:17.490 ,3,0,0.,12.0,0.,12.0,0.,12.0,0.,12.0
1979-07-17 12:32:29.490 ,3,0,0.,12.0,0.,12.0,0.,12.0,0.,12.0
1979-07-17 12:32:41.490 ,3,0,0.,12.0,0.,12.0,0.,12.0,0.,12.0
1979-07-17 12:32:53.490 ,2,0,0.,12.0,0.,12.0,0.,12.0,0.,12.0
1979-07-17 12:33:05.490 ,2,0,0.,12.0,0.,12.0,0.,12.0,0.,12.0
1979-07-17 12:33:17.490 ,2,0,0.,12.0,0.,12.0,0.,12.0,0.,12.0
1979-07-17 12:33:29.490 ,2,0,0.,12.0,0.,12.0,0.,12.0,0.,12.0
1979-07-17 12:33:41.490 ,1,0,0.,12.0,0.,12.0,0.,12.0,0.,12.0
1979-07-17 12:33:53.490 ,1,0,0.,12.0,0.,12.0,0.,12.0,0.,12.0
1979-07-17 12:34:05.490 ,1,0,0.,12.0,0.,12.0,0.,12.0,0.,12.0
1979-07-17 12:34:17.500 ,1,0,0.,12.0,0.,12.0,0.,12.0,0.,12.0
1979-07-17 12:34:29.500 ,0,0,0.,12.0,0.,12.0,0.,12.0,0.,12.0
1979-07-17 12:34:41.500 ,0,0,0.,12.0,0.,12.0,0.,12.0,0.,12.0
1979-07-17 12:34:53.500 ,0,0,0.,12.0,0.,12.0,0.,12.0,0.,12.0
1979-07-17 12:35:05.500 ,0,0,0.,12.0,0.,12.0,0.,12.0,0.,12.0
1979-07-17 12:35:17.500 ,0,0,0.,12.0,0.,12.0,0.,12.0,0.,12.0
1979-07-17 12:35:29.500 ,0,0,0.,12.0,0.,12.0,0.,12.0,0.,12.0
1979-07-17 12:35:41.500 ,0,0,0.,12.0,0.,12.0,0.,12.0,0.,12.0
1979-07-17 12:35:53.500 ,0,0,0.,12.0,0.,12.0,0.,12.0,0.,12.0
1979-07-17 12:36:05.500 ,1,0,0.,12.0,0.,12.0,0.,12.0,0.,12.0
1979-07-17 12:36:17.500 ,1,0,0.,12.0,0.,12.0,0.,12.0,0.,12.0
1979-07-17 12:36:29.500 ,1,0,0.,12.0,0.,12.0,0.,12.0,0.,12.0
1979-07-17 12:36:41.500 ,1,0,0.,12.0,0.,12.0,0.,12.0,0.,12.0
1979-07-17 12:36:53.500 ,2,0,0.,12.0,0.,12.0,0.,12.0,0.,12.0
1979-07-17 12:37:05.500 ,2,0,0.,12.0,0.,12.0,0.,12.0,0.,12.0
1979-07-17 12:37:17.500 ,2,0,0.,12.0,0.,12.0,0.,12.0,0.,12.0
1979-07-17 12:37:29.500 ,2,0,0.,12.0,0.,12.0,0.,12.0,0.,12.0
1979-07-17 12:37:41.500 ,3,0,1.,12.0,0.,12.0,0.,12.0,0.,12.0
1979-07-17 12:37:53.500 ,3,0,0.,12.0,0.,12.0,0.,12.0,0.,12.0
1979-07-17 12:38:05.500 ,3,0,0.,12.0,0.,12.0,0.,12.0,0.,12.0
1979-07-17 12:38:17.500 ,3,0,0.,12.0,0.,12.0,0.,12.0,0.,12.0
1979-07-17 12:38:29.500 ,4,0,0.,12.0,0.,12.0,0.,12.0,0.,12.0
1979-07-17 12:38:41.500 ,4,0,0.,12.0,0.,12.0,0.,12.0,0.,12.0
1979-07-17 12:38:53.500 ,4,0,0.,12.0,0.,12.0,0.,12.0,0.,12.0
1979-07-17 12:39:05.500 ,4,0,1.,12.0,0.,12.0,0.,12.0,0.,12.0
1979-07-17 12:39:17.500 ,5,0,0.,12.0,0.,12.0,0.,12.0,0.,12.0
1979-07-17 12:39:29.500 ,5,0,0.,12.0,0.,12.0,0.,12.0,0.,12.0
1979-07-17 12:39:41.500 ,5,0,0.,12.0,0.,12.0,0.,12.0,0.,12.0
1979-07-17 12:39:53.500 ,5,0,0.,12.0,0.,12.0,0.,12.0,0.,12.0
1979-07-17 12:40:05.500 ,6,0,0.,12.0,0.,12.0,0.,12.0,0.,12.0
1979-07-17 12:40:17.500 ,6,0,0.,12.0,0.,12.0,0.,12.0,0.,12.0
1979-07-17 12:40:29.500 ,6,0,0.,12.0,0.,12.0,0.,12.0,0.,12.0
1979-07-17 12:40:41.500 ,6,0,0.,12.0,0.,12.0,0.,12.0,0.,12.0
1979-07-17 12:40:53.500 ,7,0,0.,12.0,0.,12.0,0.,12.0,0.,12.0
1979-07-17 12:41:05.500 ,7,0,0.,12.0,0.,12.0,0.,12.0,0.,12.0
1979-07-17 12:41:17.500 ,7,0,0.,12.0,0.,12.0,0.,12.0,0.,12.0
1979-07-17 12:41:29.500 ,7,0,0.,12.0,0.,12.0,0.,12.0,0.,12.0
1979-07-17 12:41:41.500 ,7,0,0.,12.0,0.,12.0,0.,12.0,0.,12.0
1979-07-17 12:41:53.500 ,7,0,0.,12.0,0.,12.0,0.,12.0,0.,12.0
1979-07-17 12:42:05.500 ,7,0,0.,12.0,0.,12.0,0.,12.0,0.,12.0
1979-07-17 12:42:17.500 ,7,0,0.,12.0,0.,12.0,0.,12.0,0.,12.0
1979-07-17 12:42:29.500 ,6,0,0.,12.0,0.,12.0,0.,12.0,0.,12.0
1979-07-17 12:42:41.500 ,6,0,0.,12.0,0.,12.0,0.,12.0,0.,12.0
1979-07-17 12:42:53.500 ,6,0,1.,12.0,0.,12.0,0.,12.0,0.,12.0
1979-07-17 12:43:05.500 ,6,0,0.,12.0,0.,12.0,0.,12.0,0.,12.0
1979-07-17 12:43:17.500 ,5,0,0.,12.0,0.,12.0,0.,12.0,0.,12.0
1979-07-17 12:43:29.500 ,5,0,0.,12.0,0.,12.0,0.,12.0,0.,12.0
1979-07-17 12:43:41.500 ,5,0,0.,12.0,0.,12.0,0.,12.0,0.,12.0
1979-07-17 12:43:53.500 ,5,0,0.,12.0,0.,12.0,0.,12.0,0.,12.0
1979-07-17 12:44:05.500 ,4,0,0.,12.0,0.,12.0,0.,12.0,0.,12.0
1979-07-17 12:44:17.500 ,4,0,0.,12.0,0.,12.0,0.,12.0,0.,12.0
1979-07-17 12:44:29.500 ,4,0,0.,12.0,0.,12.0,0.,12.0,0.,12.0
1979-07-17 12:44:41.500 ,4,0,0.,12.0,0.,12.0,0.,12.0,0.,12.0
1979-07-17 12:44:53.500 ,3,0,0.,12.0,0.,12.0,0.,12.0,0.,12.0
1979-07-17 12:45:05.500 ,3,0,0.,12.0,0.,12.0,0.,12.0,0.,12.0
1979-07-17 12:45:17.500 ,3,0,0.,12.0,0.,12.0,0.,12.0,0.,12.0
1979-07-17 12:45:29.500 ,3,0,0.,12.0,0.,12.0,0.,12.0,0.,12.0
1979-07-17 12:45:41.500 ,2,0,0.,12.0,0.,12.0,0.,12.0,0.,12.0
1979-07-17 12:45:53.500 ,2,0,0.,12.0,0.,12.0,0.,12.0,0.,12.0
1979-07-17 12:46:05.500 ,2,0,0.,12.0,0.,12.0,0.,12.0,0.,12.0
1979-07-17 12:46:17.500 ,2,0,0.,12.0,0.,12.0,0.,12.0,0.,12.0
1979-07-17 12:46:29.500 ,1,0,0.,12.0,0.,12.0,0.,12.0,0.,12.0
1979-07-17 12:46:41.500 ,1,0,0.,12.0,0.,12.0,0.,12.0,0.,12.0
1979-07-17 12:46:53.500 ,1,0,0.,12.0,0.,12.0,0.,12.0,0.,12.0
1979-07-17 12:47:05.500 ,1,0,0.,12.0,0.,12.0,0.,12.0,0.,12.0
1979-07-17 12:47:17.500 ,0,0,1.,12.0,0.,12.0,0.,12.0,0.,12.0
1979-07-17 12:47:29.500 ,0,0,0.,12.0,0.,12.0,0.,12.0,0.,12.0
1979-07-17 12:47:41.500 ,0,0,0.,12.0,0.,12.0,0.,12.0,0.,12.0
1979-07-17 12:47:53.500 ,0,0,0.,12.0,0.,12.0,0.,12.0,0.,12.0
1979-07-17 12:48:05.490 ,0,0,1.,12.0,0.,12.0,0.,12.0,0.,12.0
1979-07-17 12:48:17.490 ,0,0,0.,12.0,0.,12.0,0.,12.0,0.,12.0
1979-07-17 12:48:29.490 ,0,0,0.,12.0,0.,12.0,0.,12.0,0.,12.0
1979-07-17 12:48:41.490 ,0,0,0.,12.0,0.,12.0,0.,12.0,0.,12.0
1979-07-17 12:48:53.490 ,1,0,0.,12.0,0.,12.0,0.,12.0,0.,12.0
1979-07-17 12:49:05.490 ,1,0,0.,12.0,0.,12.0,0.,12.0,0.,12.0
1979-07-17 12:49:17.490 ,1,0,0.,12.0,0.,12.0,0.,12.0,0.,12.0
1979-07-17 12:49:29.490 ,1,0,0.,12.0,0.,12.0,0.,12.0,0.,12.0
1979-07-17 12:49:41.490 ,2,0,0.,12.0,0.,12.0,0.,12.0,0.,12.0
1979-07-17 12:49:53.490 ,2,0,0.,12.0,0.,12.0,0.,12.0,0.,12.0
1979-07-17 12:50:05.490 ,2,0,0.,12.0,0.,12.0,0.,12.0,0.,12.0
1979-07-17 12:50:17.490 ,2,0,0.,12.0,0.,12.0,0.,12.0,0.,12.0
1979-07-17 12:50:29.490 ,3,0,0.,12.0,0.,12.0,0.,12.0,0.,12.0
1979-07-17 12:50:41.490 ,3,0,0.,12.0,0.,12.0,0.,12.0,0.,12.0
1979-07-17 12:50:53.490 ,3,0,0.,12.0,0.,12.0,0.,12.0,0.,12.0
1979-07-17 12:51:05.490 ,3,0,0.,12.0,0.,12.0,0.,12.0,0.,12.0
1979-07-17 12:51:17.490 ,4,0,0.,12.0,0.,12.0,0.,12.0,0.,12.0
1979-07-17 12:51:29.490 ,4,0,0.,12.0,0.,12.0,0.,12.0,0.,12.0
1979-07-17 12:51:41.490 ,4,0,0.,12.0,0.,12.0,0.,12.0,0.,12.0
1979-07-17 12:51:53.490 ,4,0,0.,12.0,0.,12.0,0.,12.0,0.,12.0
1979-07-17 12:52:05.490 ,5,0,0.,12.0,0.,12.0,0.,12.0,0.,12.0
1979-07-17 12:52:17.490 ,5,0,0.,12.0,0.,12.0,0.,12.0,0.,12.0
1979-07-17 12:52:29.490 ,5,0,0.,12.0,0.,12.0,0.,12.0,0.,12.0
1979-07-17 12:52:41.490 ,5,0,0.,12.0,0.,12.0,0.,12.0,0.,12.0
1979-07-17 12:52:53.490 ,6,0,0.,12.0,0.,12.0,0.,12.0,0.,12.0
1979-07-17 12:53:05.490 ,6,0,0.,12.0,0.,12.0,0.,12.0,0.,12.0
1979-07-17 12:53:17.490 ,6,0,0.,12.0,0.,12.0,0.,12.0,0.,12.0
1979-07-17 12:53:29.490 ,6,0,0.,12.0,0.,12.0,0.,12.0,0.,12.0
1979-07-17 12:53:41.490 ,7,0,0.,12.0,0.,12.0,0.,12.0,0.,12.0
1979-07-17 12:53:53.490 ,7,0,0.,12.0,0.,12.0,0.,12.0,0.,12.0
1979-07-17 12:54:05.490 ,7,0,0.,12.0,0.,12.0,0.,12.0,0.,12.0
1979-07-17 12:54:17.490 ,7,0,0.,12.0,0.,12.0,0.,12.0,0.,12.0
1979-07-17 12:54:29.490 ,0,0,0.,12.0,0.,12.0,0.,12.0,0.,12.0
1979-07-17 12:54:41.490 ,0,0,0.,12.0,0.,12.0,0.,12.0,0.,12.0
1979-07-17 12:54:53.490 ,0,0,0.,12.0,0.,12.0,0.,12.0,0.,12.0
1979-07-17 12:55:05.490 ,0,0,0.,12.0,0.,12.0,0.,12.0,0.,12.0
1979-07-17 12:55:17.490 ,6,0,0.,12.0,0.,12.0,0.,12.0,0.,12.0
1979-07-17 12:55:29.490 ,6,0,0.,12.0,0.,12.0,0.,12.0,0.,12.0
1979-07-17 12:55:41.490 ,6,0,0.,12.0,0.,12.0,0.,12.0,0.,12.0
1979-07-17 12:55:53.490 ,6,0,0.,12.0,0.,12.0,0.,12.0,0.,12.0
1979-07-17 12:56:05.490 ,5,0,0.,12.0,0.,12.0,0.,12.0,0.,12.0
1979-07-17 12:56:17.490 ,5,0,0.,12.0,0.,12.0,0.,12.0,0.,12.0
1979-07-17 12:56:29.490 ,5,0,0.,12.0,0.,12.0,0.,12.0,0.,12.0
1979-07-17 12:56:41.490 ,5,0,0.,12.0,0.,12.0,0.,12.0,0.,12.0
1979-07-17 12:56:53.490 ,4,0,0.,12.0,0.,12.0,0.,12.0,0.,12.0
1979-07-17 12:57:05.490 ,4,0,0.,12.0,0.,12.0,0.,12.0,0.,12.0
1979-07-17 12:57:17.490 ,4,0,0.,12.0,0.,12.0,0.,12.0,0.,12.0
1979-07-17 12:57:29.490 ,4,0,0.,12.0,0.,12.0,0.,12.0,0.,12.0
1979-07-17 12:57:41.490 ,3,0,0.,12.0,0.,12.0,0.,12.0,0.,12.0
1979-07-17 12:57:53.490 ,3,0,0.,12.0,0.,12.0,0.,12.0,0.,12.0
1979-07-17 12:58:05.490 ,3,0,1.,12.0,0.,12.0,0.,12.0,0.,12.0
1979-07-17 12:58:17.490 ,3,0,0.,12.0,0.,12.0,0.,12.0,0.,12.0
1979-07-17 12:58:29.490 ,2,0,0.,12.0,0.,12.0,0.,12.0,0.,12.0
1979-07-17 12:58:41.490 ,2,0,0.,12.0,0.,12.0,0.,12.0,0.,12.0
1979-07-17 12:58:53.490 ,2,0,0.,12.0,0.,12.0,0.,12.0,0.,12.0
1979-07-17 12:59:05.490 ,2,0,0.,12.0,0.,12.0,0.,12.0,0.,12.0
1979-07-17 12:59:17.490 ,1,0,0.,12.0,0.,12.0,0.,12.0,0.,12.0
1979-07-17 12:59:29.490 ,1,0,0.,12.0,0.,12.0,0.,12.0,0.,12.0
1979-07-17 12:59:41.490 ,1,0,0.,12.0,0.,12.0,0.,12.0,0.,12.0
1979-07-17 12:59:53.490 ,1,0,0.,12.0,0.,12.0,0.,12.0,0.,12.0
1979-07-17 13:00:05.490 ,0,0,0.,12.0,0.,12.0,0.,12.0,0.,12.0
1979-07-17 13:00:17.490 ,0,0,0.,12.0,0.,12.0,0.,12.0,0.,12.0
1979-07-17 13:00:29.490 ,0,0,0.,12.0,0.,12.0,0.,12.0,0.,12.0
1979-07-17 13:00:41.490 ,0,0,0.,12.0,0.,12.0,0.,12.0,0.,12.0
1979-07-17 13:00:53.490 ,0,0,0.,12.0,0.,12.0,0.,12.0,0.,12.0
1979-07-17 13:01:05.490 ,0,0,0.,12.0,0.,12.0,0.,12.0,0.,12.0
1979-07-17 13:01:17.490 ,0,0,0.,12.0,0.,12.0,0.,12.0,0.,12.0
1979-07-17 13:01:29.490 ,0,0,0.,12.0,0.,12.0,0.,12.0,0.,12.0
1979-07-17 13:01:41.490 ,1,0,0.,12.0,0.,12.0,0.,12.0,0.,12.0
1979-07-17 13:01:53.490 ,1,0,0.,12.0,0.,12.0,0.,12.0,0.,12.0
1979-07-17 13:02:05.490 ,1,0,0.,12.0,0.,12.0,0.,12.0,0.,12.0
1979-07-17 13:02:17.490 ,1,0,0.,12.0,0.,12.0,0.,12.0,0.,12.0
1979-07-17 13:02:29.490 ,2,0,0.,12.0,0.,12.0,0.,12.0,0.,12.0
1979-07-17 13:02:41.490 ,2,0,0.,12.0,0.,12.0,0.,12.0,0.,12.0
1979-07-17 13:02:53.490 ,2,0,0.,12.0,0.,12.0,0.,12.0,0.,12.0
1979-07-17 13:03:05.490 ,2,0,0.,12.0,0.,12.0,0.,12.0,0.,12.0
1979-07-17 13:03:17.490 ,3,0,0.,12.0,0.,12.0,0.,12.0,0.,12.0
1979-07-17 13:03:29.490 ,3,0,0.,12.0,0.,12.0,0.,12.0,0.,12.0
1979-07-17 13:03:41.490 ,3,0,0.,12.0,0.,12.0,0.,12.0,0.,12.0
1979-07-17 13:03:53.490 ,3,0,0.,12.0,0.,12.0,0.,12.0,0.,12.0
1979-07-17 13:04:05.490 ,4,1,0.,12.0,0.,12.0,0.,12.0,0.,12.0
1979-07-17 13:04:17.490 ,4,1,,0,,0,,0,,0
1979-07-17 13:04:29.490 ,4,0,1.,12.0,0.,12.0,0.,12.0,0.,12.0
1979-07-17 13:04:41.490 ,4,0,0.,12.0,0.,12.0,0.,12.0,0.,12.0
1979-07-17 13:05:17.490 ,5,0,0.,12.0,0.,12.0,0.,12.0,0.,12.0
1979-07-17 13:05:29.490 ,5,0,0.,12.0,0.,12.0,0.,12.0,0.,12.0
1979-07-17 13:05:41.490 ,6,0,0.,12.0,0.,12.0,0.,12.0,0.,12.0
1979-07-17 13:05:53.490 ,6,0,0.,12.0,0.,12.0,0.,12.0,0.,12.0
1979-07-17 13:06:05.490 ,6,0,0.,12.0,0.,12.0,0.,12.0,0.,12.0
1979-07-17 13:06:17.490 ,6,0,0.,12.0,0.,12.0,0.,12.0,0.,12.0
1979-07-17 13:06:29.490 ,7,0,0.,12.0,0.,12.0,0.,12.0,0.,12.0
1979-07-17 13:06:41.490 ,7,0,0.,12.0,0.,12.0,0.,12.0,0.,12.0
1979-07-17 13:06:53.490 ,7,0,0.,12.0,0.,12.0,0.,12.0,0.,12.0
1979-07-17 13:07:05.490 ,7,0,0.,12.0,0.,12.0,0.,12.0,0.,12.0
1979-07-17 13:07:17.490 ,3,1,0.,12.0,0.,12.0,0.,12.0,0.,12.0
1979-07-17 13:07:29.490 ,3,1,0.,12.0,0.,12.0,0.,12.0,0.,12.0
1979-07-17 13:07:41.490 ,0,1,1.,12.0,0.,12.0,0.,12.0,0.,12.0
1979-07-17 13:07:53.490 ,0,1,0.,12.0,0.,12.0,0.,12.0,0.,12.0
1979-07-17 13:08:05.490 ,0,0,0.,12.0,0.,12.0,0.,12.0,0.,12.0
1979-07-17 13:08:17.490 ,0,0,0.,12.0,0.,12.0,0.,12.0,0.,12.0
1979-07-17 13:08:29.490 ,7,1,0.,12.0,0.,12.0,0.,12.0,0.,12.0
1979-07-17 13:08:41.490 ,7,1,0.,12.0,0.,12.0,0.,12.0,0.,12.0
1979-07-17 13:08:53.490 ,3,1,0.,12.0,0.,12.0,0.,12.0,0.,12.0
1979-07-17 13:09:05.490 ,3,1,0.,12.0,0.,12.0,0.,12.0,0.,12.0
1979-07-17 13:09:17.490 ,0,1,0.,12.0,0.,12.0,0.,12.0,0.,12.0
1979-07-17 13:09:29.490 ,0,1,0.,12.0,0.,12.0,0.,12.0,0.,12.0
1979-07-17 13:09:41.490 ,4,1,0.,12.0,0.,12.0,0.,12.0,0.,12.0
1979-07-17 13:09:53.490 ,4,1,0.,12.0,0.,12.0,0.,12.0,0.,12.0
1979-07-17 13:10:05.490 ,7,1,0.,12.0,0.,12.0,0.,12.0,0.,12.0
1979-07-17 13:10:17.490 ,7,1,0.,12.0,0.,12.0,0.,12.0,0.,12.0
1979-07-17 13:10:29.490 ,3,1,0.,12.0,0.,12.0,0.,12.0,0.,12.0
1979-07-17 13:10:41.490 ,3,1,0.,12.0,0.,12.0,0.,12.0,0.,12.0
1979-07-17 13:10:53.490 ,0,1,0.,12.0,0.,12.0,0.,12.0,0.,12.0
1979-07-17 13:11:05.490 ,0,1,0.,12.0,0.,12.0,0.,12.0,0.,12.0
1979-07-17 13:11:17.490 ,4,1,0.,12.0,0.,12.0,0.,12.0,0.,12.0
1979-07-17 13:11:29.490 ,4,1,0.,12.0,0.,12.0,0.,12.0,0.,12.0
1979-07-17 13:11:41.490 ,7,1,0.,12.0,0.,12.0,0.,12.0,0.,12.0
1979-07-17 13:11:53.490 ,7,1,0.,12.0,0.,12.0,0.,12.0,0.,12.0
1979-07-17 13:12:05.490 ,3,1,0.,12.0,0.,12.0,0.,12.0,0.,12.0
1979-07-17 13:12:17.490 ,3,1,0.,12.0,0.,12.0,0.,12.0,0.,12.0
1979-07-17 13:12:29.490 ,0,1,0.,12.0,0.,12.0,0.,12.0,0.,12.0
1979-07-17 13:12:41.490 ,0,1,0.,12.0,0.,12.0,0.,12.0,0.,12.0
1979-07-17 13:12:53.490 ,4,1,0.,12.0,0.,12.0,0.,12.0,0.,12.0
1979-07-17 13:13:05.490 ,4,1,1.,12.0,0.,12.0,0.,12.0,0.,12.0
1979-07-17 13:13:17.490 ,7,1,0.,12.0,0.,12.0,0.,12.0,0.,12.0
1979-07-17 13:13:29.490 ,7,1,0.,12.0,0.,12.0,0.,12.0,0.,12.0
1979-07-17 13:13:41.490 ,3,1,0.,12.0,0.,12.0,0.,12.0,0.,12.0
1979-07-17 13:13:53.490 ,3,1,0.,12.0,0.,12.0,0.,12.0,0.,12.0
1979-07-17 13:14:05.490 ,0,1,0.,12.0,0.,12.0,0.,12.0,0.,12.0
1979-07-17 13:14:17.490 ,0,1,0.,12.0,0.,12.0,0.,12.0,0.,12.0
1979-07-17 13:14:29.490 ,4,1,0.,12.0,0.,12.0,0.,12.0,0.,12.0
1979-07-17 13:14:41.490 ,4,1,0.,12.0,0.,12.0,0.,12.0,0.,12.0
1979-07-17 13:14:53.490 ,7,1,0.,12.0,0.,12.0,0.,12.0,0.,12.0
1979-07-17 13:15:05.490 ,7,1,0.,12.0,0.,12.0,0.,12.0,0.,12.0
1979-07-17 13:15:17.490 ,3,1,0.,12.0,0.,12.0,0.,12.0,0.,12.0
1979-07-17 13:15:29.490 ,3,1,0.,12.0,0.,12.0,0.,12.0,0.,12.0
1979-07-17 13:15:41.490 ,0,1,1.,12.0,0.,12.0,0.,12.0,0.,12.0
1979-07-17 13:15:53.490 ,0,1,0.,12.0,0.,12.0,0.,12.0,0.,12.0
1979-07-17 13:16:05.490 ,4,1,0.,12.0,0.,12.0,0.,12.0,0.,12.0
1979-07-17 13:16:17.490 ,4,1,0.,12.0,0.,12.0,0.,12.0,0.,12.0
1979-07-17 13:16:29.490 ,7,1,0.,12.0,0.,12.0,0.,12.0,0.,12.0
1979-07-17 13:16:41.490 ,7,1,0.,12.0,0.,12.0,0.,12.0,0.,12.0
1979-07-17 13:16:53.490 ,3,1,0.,12.0,0.,12.0,0.,12.0,0.,12.0
1979-07-17 13:17:05.490 ,3,1,1.,12.0,0.,12.0,0.,12.0,0.,12.0
1979-07-17 13:17:17.490 ,0,1,0.,12.0,0.,12.0,0.,12.0,0.,12.0
1979-07-17 13:17:29.490 ,0,1,0.,12.0,0.,12.0,0.,12.0,0.,12.0